Regional Weather Roundup
Issued by NWS

Home | Current Version | Previous Version | Text Only | Print | Product List | Glossary On
Versions: 1 2 3 4 5 6 7 8 9 10 11 12 13 14 15 16 17 18 19 20 21 22 23 24 25 26 27 28 29 30 31 32 33 34 35 36 37 38 39 40 41 42 43 44 45 46 47 48 49 50
000
ASUS44 KJAN 061610
RWRMS

MISSISSIPPI HOURLY WEATHER ROUNDUP
NATIONAL WEATHER SERVICE JACKSON MS
1100 AM CDT WED MAY 06 2015

NOTE: "FAIR: INDICATES FEW OR NO CLOUDS BELOW 12,000 FEET WITH NO
SIGNIFICANT WEATHER AND/OR OBSTRUCTIONS TO VISIBILITY.

MSZ001>002-007>008-010>013-018>021-025>028-034>036-061700-
NORTHWEST MISSISSIPPI

CITY           SKY/WX    TMP DP  RH WIND       PRES   REMARKS
CLARKSDALE     FAIR      75  59  57 SE7       30.15S
CLEVELAND      FAIR      78  62  57 S8        30.13S
GREENWOOD      SUNNY     79  60  52 CALM      30.14F
GREENVILLE     MOSUNNY   80  59  48 SE9       30.12F
OLIVE BRANCH   MOSUNNY   75  59  57 S9        30.17S
OXFORD         FAIR      77  54  44 SE10      30.18F
TUNICA         SUNNY     79  57  47 SE8       30.15F
$$

MSZ003>006-009-014>017-022>024-029>033-037>039-061700-
NORTHEAST MISSISSIPPI

CITY           SKY/WX    TMP DP  RH WIND       PRES   REMARKS
COLUMBUS AFB   SUNNY     84  56  38 E5        30.17F
CORINTH        FAIR      79  54  41 SE9       30.18F
GOLDN TRIANGLE SUNNY     79  55  44 SE7       30.17F
STARKVILLE     FAIR      77  55  47 SE5       30.17F
TUPELO         SUNNY     79  55  43 SW3       30.18F
$$

MSZ040-058-061700-
CENTRAL MISSISSIPPI

CITY           SKY/WX    TMP DP  RH WIND       PRES   REMARKS
JACKSON INTL   MOSUNNY   80  59  48 SE12      30.13S
JACKSON HAWKNS MOSUNNY   79  60  52 S10       30.13F
MERIDIAN KEY   SUNNY     78  58  49 E5        30.15F
MERIDIAN NAS   SUNNY     79  58  48 SE8       30.17S
RAYMOND        FAIR      79  75  89 S10G17    30.12F
VICKSBURG      SUNNY     79  63  57 SE12      30.12F
$$

MSZ059>079-061700-
SOUTH MISSISSIPPI

CITY           SKY/WX    TMP DP  RH WIND       PRES   REMARKS
BROOKHAVEN     FAIR      79  64  61 SE6       30.14F
HATTIESBURG    MOSUNNY   79  64  60 SE9       30.13F
MCCOMB         MOSUNNY   78  62  57 SE14      30.11F
NATCHEZ        MOSUNNY   77  63  61 SE10G16   30.12S
PINE BELT      MOSUNNY   79  63  57 E9        30.14F
$$

MSZ080>082-061700-
COASTAL MISSISSIPPI

CITY           SKY/WX    TMP DP  RH WIND       PRES   REMARKS
BAY ST LOUIS   PTSUNNY   77  64  65 MISG      30.12R
BILOXI         MOSUNNY   80  68  66 SE16G22   30.11S
PASCAGOULA     MOSUNNY   80  66  62 SE13G20   30.12S
GULFPORT       SUNNY     79  67  66 E15G24    30.11S
$$


USA.gov is the U.S. government's official web portal to all federal, state and local government web resources and services.